{"data":{"norad_id":57788,"epoch":"2026-05-25T05:08:48.143904Z","epoch_age_seconds":59536,"freshness":"FRESH","line1":"1 57788U 23134T   26145.21444611  .00000394  00000+0  23831-4 0  9995","line2":"2 57788  43.0025 110.9152 0001498 283.9662  76.1023 15.27580084151341","mean_motion":15.27580084,"eccentricity":0.0001498,"inclination_deg":43.0025,"raan_deg":110.9152,"arg_perigee_deg":283.9662,"mean_anomaly_deg":76.1023,"bstar":2.3831e-5,"rev_number":15134,"period_min":94.266743530024,"perigee_km":482.02103887394,"apogee_km":484.07665015295,"semimajor_km":6861.1858445134,"source":"CELESTRAK","updated_at":"2026-05-25T13:38:18.407414Z"}}